Location: Unspecified
(0.0000°N, 0.0000°E)
Time: 19:10:45
(UTC+00:00)

METEOR 2-11 DEB - Visible Passes

Search period start: 14 January 2025 00:00
Search period end: 24 January 2025 00:00
Orbit: 895 x 908 km, 82.5° (Epoch: 01 January)

Date Brightness Start Highest point End Pass type
(mag) Time Alt. Az. Time Alt. Az. Time Alt. Az.
14 Jan ? 20:43:14 10° SSW 20:46:40 36° SSW 20:46:40 36° SSW visible
15 Jan ? 19:06:46 10° ESE 19:07:14 11° ESE 19:07:14 11° ESE visible
15 Jan ? 20:46:22 10° SSW 20:50:21 38° SW 20:50:21 38° SW visible
16 Jan ? 19:08:07 10° SE 19:10:59 15° E 19:10:59 15° E visible
16 Jan ? 20:49:36 10° SSW 20:54:06 35° WSW 20:54:06 35° WSW visible
17 Jan ? 19:10:10 10° SE 19:14:20 20° E 19:14:47 20° E visible
17 Jan ? 20:52:57 10° SW 20:57:51 28° W 20:57:55 28° W visible
18 Jan ? 19:12:29 10° SSE 19:17:15 26° E 19:18:39 24° ENE visible
18 Jan ? 20:56:26 10° SW 21:00:47 22° W 21:01:48 21° WNW visible
19 Jan ? 19:14:56 10° SSE 19:20:10 34° E 19:22:37 24° NE visible
19 Jan ? 21:00:09 10° SW 21:03:41 16° W 21:05:45 14° WNW visible
20 Jan ? 19:17:32 10° SSE 19:23:04 44° E 19:26:39 21° NNE visible
20 Jan ? 21:04:21 10° WSW 21:06:35 12° W 21:08:48 10° WNW visible
21 Jan ? 19:20:12 10° S 19:25:57 57° E 19:30:48 15° NNE visible
22 Jan ? 19:22:57 10° S 19:28:48 75° E 19:34:38 10° N visible
23 Jan ? 19:25:47 10° S 19:31:39 85° W 19:37:31 10° N visible
